This is the latest recevied weather packets stored in our database for station/object KJ4EWA. If no packets are shown the sender has not sent any weather packets the latest 10 day(s).
| Time | Temp. | Humidity | Pressure | Rain* | Wind** | Luminosity | Snow |
|---|---|---|---|---|---|---|---|
| 1778099012 | 25.56° C | 93% | 1017.6 hPa | 0 mm | - | 135 W/m² | - |
| 1778098708 | 25.56° C | 94% | 1017.2 hPa | 0 mm | - | 122 W/m² | - |
| 1778098406 | 25.56° C | 94% | 1017.4 hPa | 0 mm | - | 137 W/m² | - |
| 1778098103 | 25.56° C | 94% | 1017.2 hPa | 0 mm | - | 49 W/m² | - |
| 1778097799 | 25.56° C | 94% | 1017.4 hPa | 0 mm | - | 33 W/m² | - |
| 1778097495 | 25.56° C | 94% | 1017.5 hPa | 0 mm | - | 23 W/m² | - |
| 1778097192 | 25.56° C | 93% | 1017.7 hPa | 0 mm | - | 32 W/m² | - |
| 1778096889 | 25.56° C | 93% | 1017.9 hPa | 0 mm | - | 34 W/m² | - |
| 1778096585 | 26.11° C | 93% | 1017.5 hPa | 0 mm | - | 44 W/m² | - |
| 1778096283 | 26.11° C | 93% | 1017.5 hPa | 0 mm | - | 49 W/m² | - |
| 1778095980 | 26.11° C | 92% | 1017.7 hPa | 0 mm | - | 69 W/m² | - |
| 1778095676 | 26.11° C | 93% | 1017.6 hPa | 0 mm | - | 59 W/m² | - |
| 1778095373 | 26.11° C | 92% | 1017.8 hPa | 0 mm | - | 139 W/m² | - |
| 1778095070 | 26.67° C | 91% | 1018 hPa | 0 mm | - | 62 W/m² | - |
| 1778094766 | 26.67° C | 92% | 1018 hPa | 0 mm | - | 181 W/m² | - |
| 1778094464 | 26.67° C | 91% | 1018.3 hPa | 0 mm | - | 204 W/m² | - |
| 1778094160 | 26.67° C | 91% | 1018.2 hPa | 0 mm | - | 284 W/m² | - |
| 1778093857 | 26.11° C | 93% | 1018.4 hPa | 0 mm | - | 356 W/m² | - |
| 1778093554 | 26.11° C | 93% | 1018.4 hPa | 0 mm | - | 161 W/m² | - |
| 1778093251 | 26.11° C | 93% | 1018.5 hPa | 0 mm | - | 137 W/m² | - |
| 1778092948 | 25.56° C | 93% | 1018.7 hPa | 0 mm | - | 120 W/m² | - |
| 1778092645 | 26.11° C | 92% | 1018.7 hPa | 0 mm | - | 124 W/m² | - |
| 1778092341 | 26.67° C | 91% | 1018.6 hPa | 0 mm | - | 139 W/m² | - |
| 1778092038 | 27.22° C | 89% | 1018.7 hPa | 0 mm | - | 105 W/m² | - |
| 1778091735 | 26.67° C | 90% | 1018.6 hPa | 0 mm | - | 194 W/m² | - |
* Rain latest hour (hover to see other rain measurements)
** Current wind speed in m/s (hover to see current wind gust speed)